Regional Weather Roundup
Issued by NWS

Home | Current Version | Previous Version | Graphics & Text | Print | Product List | Glossary Off
Versions: 1 2 3 4 5 6 7 8 9 10 11 12 13 14 15 16 17 18 19 20 21 22 23 24 25 26 27 28 29 30 31 32 33 34 35 36 37 38 39 40 41 42 43 44 45 46 47 48 49 50

000
ASUS43 KDMX 191706
RWRIA

WEATHER ROUNDUP FOR IOWA
NATIONAL WEATHER SERVICE DES MOINES IA
1200 PM CDT WED JUL 19 2017

NOTE: "FAIR" INDICATES FEW OR NO CLOUDS BELOW 12,000 FEET WITH NO
SIGNIFICANT WEATHER AND/OR OBSTRUCTIONS TO VISIBILITY.

* - THESE STATIONS ARE NOT NWS STATIONS...THUS NOT UNDER NWS
QUALITY CONTROL.  THEY ALSO DO NOT REPORT WEATHER SUCH
AS PRECIPITATION OR FOG.

IAZ001>003-012>014-020>022-031>034-043>046-191800-
   NORTHWEST IOWA

CITY           SKY/WX    TMP DP  RH WIND       PRES   REMARKS
CARROLL *      SUNNY     88  73  62 S14G21    30.02F HX  96
CHEROKEE *     SUNNY     88  73  61 S15G23    30.00F HX  95
DENISON *      SUNNY     86  73  66 SW13G25   30.02F HX  93
ORANGE CITY *  SUNNY     86  73  66 S16G23    29.98F HX  93
SHELDON *      MOSUNNY   86  73  66 MISG      29.98F HX  93
SIOUX CITY     SUNNY     89  74  60 S17G23    29.96F HX  98
SPENCER        MOSUNNY   88  74  63 SE17      30.02F HX  96
STORM LAKE *   SUNNY     86  72  62 S16G23    30.03F HX  92
$$

IAZ055>058-069>071-079>083-090>094-191800-
   SOUTHWEST IOWA

CITY           SKY/WX    TMP DP  RH WIND       PRES   REMARKS
ATLANTIC *     SUNNY     88  73  62 S16       30.01F HX  96
AUDUBON *      SUNNY     88  75  66 S15G23    30.04F HX  97
CLARINDA *     CLOUDY    86  77  74 S9G17     30.06F HX  97
COUNCIL BLFS * SUNNY     86  77  74 S14       30.01F HX  97
CRESTON *      SUNNY     86  70  58 S15       30.07F HX  90
HARLAN  *      SUNNY     86  75  70 S13G24    30.05F HX  95
LAMONI         CLOUDY    82  73  74 S8        30.09F HX  87
RED OAK *      MOSUNNY   86  75  70 S10G18    30.03F HX  95
SHENANDOAH *   CLOUDY    86  73  66 S15G22    30.03F HX  93
$$

IAZ047>049-059>061-072>074-084-191800-
   CENTRAL IOWA

CITY           SKY/WX    TMP DP  RH WIND       PRES   REMARKS
AMES           SUNNY     89  74  60 S9        30.05F HX  98
ANKENY *       SUNNY     88  72  58 S9G15     30.06F HX  94
BOONE *        SUNNY     88  73  62 S10       30.05S HX  96
CHARITON *     MOSUNNY   88  70  55 SW9G18    30.08R HX  92
DES MOINES     MOSUNNY   90  71  53 S12       30.04F HX  96
GRINNELL*      SUNNY     86  73  66 S5        30.09S HX  93
KNOXVILLE *    MOSUNNY   86  73  66 S9        30.06S HX  93
MARSHALLTOWN   SUNNY     88  74  63 S8        30.05F HX  96
NEWTON *       SUNNY     84  75  74 S9        30.07F HX  92
PELLA *        MOSUNNY   88  73  60 SW6       30.08F HX  95
PERRY *          N/A     88  74  62 S10       30.05F HX  96
$$

IAZ004>006-015-016-023>025-035-036-191800-
   NORTH CENTRAL IOWA

CITY           SKY/WX    TMP DP  RH WIND       PRES   REMARKS
ALGONA *       MOSUNNY   84  75  74 SE10      30.05F HX  92
CLARION *      MOSUNNY   84  77  79 SE10      30.05F HX  94
ESTHERVILLE    MOSUNNY   82  75  79 SE15G21   30.03F HX  89
FORT DODGE *   SUNNY     88  72  58 S9        30.05S HX  94
MASON CITY     CLOUDY    80  74  81 SE10      30.09F HX  85
FOREST CITY *  PTSUNNY   81  73  78 SE12      30.08S HX  85
WEBSTER CITY * SUNNY     88  73  62 S9        30.03F HX  96
IOWA FALLS *     N/A     86  75  70 SE8       30.08F HX  94
$$

IAZ007>011-017>019-026>030-037>042-050>054-066-191800-
   NORTHEAST IOWA

CITY           SKY/WX    TMP DP  RH WIND       PRES   REMARKS
CEDAR RAPIDS   MOSUNNY   86  78  77 SE3       30.08S HX  98
CHARLES CITY * CLOUDY    81  75  83 E10       30.09F HX  86
CLINTON *      MOSUNNY   84  76  76 S3        30.10S HX  93
DECORAH *      PTSUNNY   79  72  78 VRB6      30.10F HX  82
DUBUQUE        PTSUNNY   83  73  72 E5        30.11S HX  89
MONTICELLO *   PTSUNNY   84  75  74 CALM      30.08F HX  92
OELWEIN *      PTSUNNY   82  77  83 SE6       30.10F HX  91
WATERLOO       SUNNY     85  74  69 SE5       30.06F HX  92
$$

IAZ064-065-067-068-078-191800-
   EAST CENTRAL IOWA

CITY           SKY/WX    TMP DP  RH WIND       PRES   REMARKS
DAVENPORT      SUNNY     85  76  74 W3        30.10F HX  94
IOWA CITY      SUNNY     88  75  65 S5        30.09S HX  97
MT. PLEASANT * SUNNY     91  66  44 S3        30.09F HX  93
MUSCATINE *    SUNNY     88  73  62 SW5       30.08S HX  96
QUAD CITIES    SUNNY     88  75  65 S3        30.07F HX  97
$$

IAZ062-063-075>077-085>089-095>099-191800-
   SOUTHEAST IOWA

CITY           SKY/WX    TMP DP  RH WIND       PRES   REMARKS
BURLINGTON     MOSUNNY   89  73  59 CALM      30.09F HX  97
FAIRFIELD *    CLOUDY    88  70  55 CALM      30.08F HX  92
FORT MADISON * SUNNY     90  72  55 CALM      30.10F HX  96
KEOKUK *       SUNNY     90  72  55 W8        30.08F HX  96
OSKALOOSA *      N/A     87  73  63 S5        30.07F HX  95
CENTERVILLE *    N/A     86  73  66 CALM      30.10F HX  93
OTTUMWA        MOSUNNY   89  73  59 S5        30.07F HX  97
WASHINGTON *   SUNNY     88  77  70 S6        30.10S HX 100
$$

ABBREVIATIONS USED IN REMARKS
   TC - TEMPERATURES IN CELSIUS
  WCI - WIND CHILL INDEX
   HX - HEAT INDEX
  VSB - VISIBILITY
$$





USA.gov is the U.S. government's official web portal to all federal, state and local government web resources and services.